Year,Month,Day,Hour,Minute,Value (Times are PST for temperature in C)
2016,08,17,00,00,16.10
2016,08,17,00,01,16.10
2016,08,17,00,02,16.10
2016,08,17,00,03,16.10
2016,08,17,00,04,16.10
2016,08,17,00,05,16.10
2016,08,17,00,06,16.10
2016,08,17,00,07,16.10
2016,08,17,00,08,16.10
2016,08,17,00,09,16.10
2016,08,17,00,10,16.10
2016,08,17,00,11,16.00
2016,08,17,00,12,16.00
2016,08,17,00,13,16.00
2016,08,17,00,14,16.00
2016,08,17,00,15,16.00
2016,08,17,00,16,16.00
2016,08,17,00,17,16.00
2016,08,17,00,18,15.90
2016,08,17,00,19,15.90
2016,08,17,00,20,15.90
2016,08,17,00,21,15.90
2016,08,17,00,22,15.80
2016,08,17,00,23,15.80
2016,08,17,00,24,15.80
2016,08,17,00,25,15.80
2016,08,17,00,26,15.70
2016,08,17,00,27,15.70
2016,08,17,00,28,15.70
2016,08,17,00,29,15.70
2016,08,17,00,30,15.70
2016,08,17,00,31,15.70
2016,08,17,00,32,15.70
2016,08,17,00,33,15.70
2016,08,17,00,34,15.70
2016,08,17,00,35,15.70
2016,08,17,00,36,15.60
2016,08,17,00,37,15.60
2016,08,17,00,38,15.60
2016,08,17,00,39,15.60
2016,08,17,00,40,15.60
2016,08,17,00,41,15.60
2016,08,17,00,42,15.60
2016,08,17,00,43,15.50
2016,08,17,00,44,15.50
2016,08,17,00,45,15.50
2016,08,17,00,46,15.40
2016,08,17,00,47,15.40
2016,08,17,00,48,15.40
2016,08,17,00,49,15.40
2016,08,17,00,50,15.30
2016,08,17,00,51,15.30
2016,08,17,00,52,15.30
2016,08,17,00,53,15.30
2016,08,17,00,54,15.30
2016,08,17,00,55,15.30
2016,08,17,00,56,15.30
2016,08,17,00,57,15.30
2016,08,17,00,58,15.30
2016,08,17,00,59,15.30
2016,08,17,01,00,15.30
2016,08,17,01,01,15.30
2016,08,17,01,02,15.30
2016,08,17,01,03,15.30
2016,08,17,01,04,15.30
2016,08,17,01,05,15.30
2016,08,17,01,06,15.30
2016,08,17,01,07,15.30
2016,08,17,01,08,15.40
2016,08,17,01,09,15.40
2016,08,17,01,10,15.40
2016,08,17,01,11,15.40
2016,08,17,01,12,15.40
2016,08,17,01,13,15.40
2016,08,17,01,14,15.40
2016,08,17,01,15,15.40
2016,08,17,01,16,15.40
2016,08,17,01,17,15.40
2016,08,17,01,18,15.40
2016,08,17,01,19,15.40
2016,08,17,01,20,15.40
2016,08,17,01,21,15.40
2016,08,17,01,22,15.40
2016,08,17,01,23,15.40
2016,08,17,01,24,15.40
2016,08,17,01,25,15.30
2016,08,17,01,26,15.30
2016,08,17,01,27,15.30
2016,08,17,01,28,15.30
2016,08,17,01,29,15.30
2016,08,17,01,30,15.30
2016,08,17,01,31,15.20
2016,08,17,01,32,15.20
2016,08,17,01,33,15.20
2016,08,17,01,34,15.20
2016,08,17,01,35,15.20
2016,08,17,01,36,15.10
2016,08,17,01,37,15.10
2016,08,17,01,38,15.10
2016,08,17,01,39,15.10
2016,08,17,01,40,15.10
2016,08,17,01,41,15.10
2016,08,17,01,42,15.10
2016,08,17,01,43,15.00
2016,08,17,01,44,15.00
2016,08,17,01,45,15.00
2016,08,17,01,46,15.00
2016,08,17,01,47,15.00
2016,08,17,01,48,15.00
2016,08,17,01,49,14.90
2016,08,17,01,50,14.90
2016,08,17,01,51,14.90
2016,08,17,01,52,14.90
2016,08,17,01,53,14.80
2016,08,17,01,54,14.80
2016,08,17,01,55,14.80
2016,08,17,01,56,14.70
2016,08,17,01,57,14.70
2016,08,17,01,58,14.70
2016,08,17,01,59,14.60
2016,08,17,02,00,14.60
2016,08,17,02,01,14.60
2016,08,17,02,02,14.60
2016,08,17,02,03,14.60
2016,08,17,02,04,14.60
2016,08,17,02,05,14.60
2016,08,17,02,06,14.60
2016,08,17,02,07,14.60
2016,08,17,02,08,14.50
2016,08,17,02,09,14.50
2016,08,17,02,10,14.50
2016,08,17,02,11,14.50
2016,08,17,02,12,14.50
2016,08,17,02,13,14.50
2016,08,17,02,14,14.40
2016,08,17,02,15,14.40
2016,08,17,02,16,14.40
2016,08,17,02,17,14.40
2016,08,17,02,18,14.40
2016,08,17,02,19,14.40
2016,08,17,02,20,14.40
2016,08,17,02,21,14.30
2016,08,17,02,22,14.30
2016,08,17,02,23,14.30
2016,08,17,02,24,14.30
2016,08,17,02,25,14.30
2016,08,17,02,26,14.30
2016,08,17,02,27,14.30
2016,08,17,02,28,14.30
2016,08,17,02,29,14.30
2016,08,17,02,30,14.30
2016,08,17,02,31,14.30
2016,08,17,02,32,14.30
2016,08,17,02,33,14.30
2016,08,17,02,34,14.30
2016,08,17,02,35,14.30
2016,08,17,02,36,14.30
2016,08,17,02,37,14.20
2016,08,17,02,38,14.20
2016,08,17,02,39,14.20
2016,08,17,02,40,14.20
2016,08,17,02,41,14.10
2016,08,17,02,42,14.10
2016,08,17,02,43,14.10
2016,08,17,02,44,14.10
2016,08,17,02,45,14.10
2016,08,17,02,46,14.10
2016,08,17,02,47,14.10
2016,08,17,02,48,14.00
2016,08,17,02,49,14.00
2016,08,17,02,50,14.00
2016,08,17,02,51,13.90
2016,08,17,02,52,13.90
2016,08,17,02,53,13.90
2016,08,17,02,54,13.90
2016,08,17,02,55,13.90
2016,08,17,02,56,13.80
2016,08,17,02,57,13.80
2016,08,17,02,58,13.80
2016,08,17,02,59,13.80
2016,08,17,03,00,13.70
2016,08,17,03,01,13.70
2016,08,17,03,02,13.70
2016,08,17,03,03,13.70
2016,08,17,03,04,13.70
2016,08,17,03,05,13.60
2016,08,17,03,06,13.60
2016,08,17,03,07,13.60
2016,08,17,03,08,13.60
2016,08,17,03,09,13.50
2016,08,17,03,10,13.50
2016,08,17,03,11,13.50
2016,08,17,03,12,13.40
2016,08,17,03,13,13.40
2016,08,17,03,14,13.40
2016,08,17,03,15,13.40
2016,08,17,03,16,13.40
2016,08,17,03,17,13.40
2016,08,17,03,18,13.40
2016,08,17,03,19,13.40
2016,08,17,03,20,13.40
2016,08,17,03,21,13.40
2016,08,17,03,22,13.40
2016,08,17,03,23,13.40
2016,08,17,03,24,13.40
2016,08,17,03,25,13.40
2016,08,17,03,26,13.40
2016,08,17,03,27,13.40
2016,08,17,03,28,13.30
2016,08,17,03,29,13.30
2016,08,17,03,30,13.30
2016,08,17,03,31,13.30
2016,08,17,03,32,13.30
2016,08,17,03,33,13.30
2016,08,17,03,34,13.30
2016,08,17,03,35,13.30
2016,08,17,03,36,13.30
2016,08,17,03,37,13.30
2016,08,17,03,38,13.30
2016,08,17,03,39,13.30
2016,08,17,03,40,13.30
2016,08,17,03,41,13.30
2016,08,17,03,42,13.30
2016,08,17,03,43,13.30
2016,08,17,03,44,13.30
2016,08,17,03,45,13.30
2016,08,17,03,46,13.30
2016,08,17,03,47,13.30
2016,08,17,03,48,13.30
2016,08,17,03,49,13.30
2016,08,17,03,50,13.30
2016,08,17,03,51,13.40
2016,08,17,03,52,13.40
2016,08,17,03,53,13.40
2016,08,17,03,54,13.40
2016,08,17,03,55,13.50
2016,08,17,03,56,13.50
2016,08,17,03,57,13.50
2016,08,17,03,58,13.50
2016,08,17,03,59,13.50
2016,08,17,04,00,13.40
2016,08,17,04,01,13.40
2016,08,17,04,02,13.40
2016,08,17,04,03,13.40
2016,08,17,04,04,13.40
2016,08,17,04,05,13.30
2016,08,17,04,06,13.30
2016,08,17,04,07,13.30
2016,08,17,04,08,13.30
2016,08,17,04,09,13.30
2016,08,17,04,10,13.30
2016,08,17,04,11,13.30
2016,08,17,04,12,13.20
2016,08,17,04,13,13.20
2016,08,17,04,14,13.20
2016,08,17,04,15,13.20
2016,08,17,04,16,13.20
2016,08,17,04,17,13.20
2016,08,17,04,18,13.10
2016,08,17,04,19,13.10
2016,08,17,04,20,13.10
2016,08,17,04,21,13.10
2016,08,17,04,22,13.00
2016,08,17,04,23,13.00
2016,08,17,04,24,13.00
2016,08,17,04,25,12.90
2016,08,17,04,26,12.90
2016,08,17,04,27,12.90
2016,08,17,04,28,12.80
2016,08,17,04,29,12.80
2016,08,17,04,30,12.80
2016,08,17,04,31,12.80
2016,08,17,04,32,12.80
2016,08,17,04,33,12.80
2016,08,17,04,34,12.70
2016,08,17,04,35,12.70
2016,08,17,04,36,12.70
2016,08,17,04,37,12.70
2016,08,17,04,38,12.70
2016,08,17,04,39,12.70
2016,08,17,04,40,12.70
2016,08,17,04,41,12.60
2016,08,17,04,42,12.60
2016,08,17,04,43,12.60
2016,08,17,04,44,12.60
2016,08,17,04,45,12.60
2016,08,17,04,46,12.50
2016,08,17,04,47,12.50
2016,08,17,04,48,12.50
2016,08,17,04,49,12.40
2016,08,17,04,50,12.40
2016,08,17,04,51,12.40
2016,08,17,04,52,12.40
2016,08,17,04,53,12.40
2016,08,17,04,54,12.30
2016,08,17,04,55,12.30
2016,08,17,04,56,12.30
2016,08,17,04,57,12.30
2016,08,17,04,58,12.30
2016,08,17,04,59,12.30
2016,08,17,05,00,12.30
2016,08,17,05,01,12.30
2016,08,17,05,02,12.30
2016,08,17,05,03,12.30
2016,08,17,05,04,12.30
2016,08,17,05,05,12.30
2016,08,17,05,06,12.30
2016,08,17,05,07,12.30
2016,08,17,05,08,12.30
2016,08,17,05,09,12.30
2016,08,17,05,10,12.30
2016,08,17,05,11,12.30
2016,08,17,05,12,12.30
2016,08,17,05,13,12.30
2016,08,17,05,14,12.30
2016,08,17,05,15,12.30
2016,08,17,05,16,12.30
2016,08,17,05,17,12.30
2016,08,17,05,18,12.30
2016,08,17,05,19,12.30
2016,08,17,05,20,12.30
2016,08,17,05,21,12.20
2016,08,17,05,22,12.20
2016,08,17,05,23,12.20
2016,08,17,05,24,12.20
2016,08,17,05,25,12.20
2016,08,17,05,26,12.10
2016,08,17,05,27,12.10
2016,08,17,05,28,12.10
2016,08,17,05,29,12.10
2016,08,17,05,30,12.10
2016,08,17,05,31,12.10
2016,08,17,05,32,12.10
2016,08,17,05,33,12.10
2016,08,17,05,34,12.10
2016,08,17,05,35,12.10
2016,08,17,05,36,12.10
2016,08,17,05,37,12.10
2016,08,17,05,38,12.10
2016,08,17,05,39,12.10
2016,08,17,05,40,12.10
2016,08,17,05,41,12.10
2016,08,17,05,42,12.10
2016,08,17,05,43,12.10
2016,08,17,05,44,12.10
2016,08,17,05,45,12.10
2016,08,17,05,46,12.10
2016,08,17,05,47,12.10
2016,08,17,05,48,12.10
2016,08,17,05,49,12.10
2016,08,17,05,50,12.10
2016,08,17,05,51,12.00
2016,08,17,05,52,12.00
2016,08,17,05,53,12.00
2016,08,17,05,54,12.00
2016,08,17,05,55,11.90
2016,08,17,05,56,11.90
2016,08,17,05,57,11.90
2016,08,17,05,58,11.90
2016,08,17,05,59,11.90
2016,08,17,06,00,11.90
2016,08,17,06,01,11.90
2016,08,17,06,02,11.90
2016,08,17,06,03,11.90
2016,08,17,06,04,11.90
2016,08,17,06,05,11.90
2016,08,17,06,06,11.90
2016,08,17,06,07,11.90
2016,08,17,06,08,11.90
2016,08,17,06,09,11.80
2016,08,17,06,10,11.80
2016,08,17,06,11,11.90
2016,08,17,06,12,11.80
2016,08,17,06,13,11.80
2016,08,17,06,14,11.80
2016,08,17,06,15,11.80
2016,08,17,06,16,11.80
2016,08,17,06,17,11.90
2016,08,17,06,18,11.80
2016,08,17,06,19,11.80
2016,08,17,06,20,11.90
2016,08,17,06,21,11.90
2016,08,17,06,22,11.90
2016,08,17,06,23,11.90
2016,08,17,06,24,11.90
2016,08,17,06,25,11.90
2016,08,17,06,26,11.80
2016,08,17,06,27,11.80
2016,08,17,06,28,11.80
2016,08,17,06,29,11.80
2016,08,17,06,30,11.80
2016,08,17,06,31,11.80
2016,08,17,06,32,11.80
2016,08,17,06,33,11.80
2016,08,17,06,34,11.80
2016,08,17,06,35,11.80
2016,08,17,06,36,11.80
2016,08,17,06,37,11.90
2016,08,17,06,38,11.90
2016,08,17,06,39,11.90
2016,08,17,06,40,11.90
2016,08,17,06,41,11.90
2016,08,17,06,42,11.90
2016,08,17,06,43,11.90
2016,08,17,06,44,11.90
2016,08,17,06,45,11.90
2016,08,17,06,46,11.90
2016,08,17,06,47,11.90
2016,08,17,06,48,12.00
2016,08,17,06,49,12.00
2016,08,17,06,50,12.00
2016,08,17,06,51,12.00
2016,08,17,06,52,12.10
2016,08,17,06,53,12.10
2016,08,17,06,54,12.10
2016,08,17,06,55,12.10
2016,08,17,06,56,12.20
2016,08,17,06,57,12.20
2016,08,17,06,58,12.20
2016,08,17,06,59,12.20
2016,08,17,07,00,12.20
2016,08,17,07,01,12.20
2016,08,17,07,02,12.30
2016,08,17,07,03,12.30
2016,08,17,07,04,12.30
2016,08,17,07,05,12.30
2016,08,17,07,06,12.30
2016,08,17,07,07,12.30
2016,08,17,07,08,12.40
2016,08,17,07,09,12.40
2016,08,17,07,10,12.50
2016,08,17,07,11,12.50
2016,08,17,07,12,12.50
2016,08,17,07,13,12.60
2016,08,17,07,14,12.60
2016,08,17,07,15,12.70
2016,08,17,07,16,12.80
2016,08,17,07,17,12.90
2016,08,17,07,18,12.90
2016,08,17,07,19,13.00
2016,08,17,07,20,13.10
2016,08,17,07,21,13.20
2016,08,17,07,22,13.30
2016,08,17,07,23,13.30
2016,08,17,07,24,13.40
2016,08,17,07,25,13.50
2016,08,17,07,26,13.60
2016,08,17,07,27,13.60
2016,08,17,07,28,13.70
2016,08,17,07,29,13.80
2016,08,17,07,30,13.90
2016,08,17,07,31,14.00
2016,08,17,07,32,14.00
2016,08,17,07,33,14.10
2016,08,17,07,34,14.20
2016,08,17,07,35,14.20
2016,08,17,07,36,14.30
2016,08,17,07,37,14.40
2016,08,17,07,38,14.40
2016,08,17,07,39,14.50
2016,08,17,07,40,14.60
2016,08,17,07,41,14.70
2016,08,17,07,42,14.70
2016,08,17,07,43,14.80
2016,08,17,07,44,14.90
2016,08,17,07,45,15.00
2016,08,17,07,46,15.00
2016,08,17,07,47,15.10
2016,08,17,07,48,15.20
2016,08,17,07,49,15.30
2016,08,17,07,50,15.30
2016,08,17,07,51,15.40
2016,08,17,07,52,15.50
2016,08,17,07,53,15.50
2016,08,17,07,54,15.60
2016,08,17,07,55,15.70
2016,08,17,07,56,15.80
2016,08,17,07,57,15.90
2016,08,17,07,58,16.00
2016,08,17,07,59,16.10
2016,08,17,08,00,16.10
2016,08,17,08,01,16.20
2016,08,17,08,02,16.20
2016,08,17,08,03,16.30
2016,08,17,08,04,16.40
2016,08,17,08,05,16.50
2016,08,17,08,06,16.50
2016,08,17,08,07,16.60
2016,08,17,08,08,16.70
2016,08,17,08,09,16.70
2016,08,17,08,10,16.80
2016,08,17,08,11,16.80
2016,08,17,08,12,16.80
2016,08,17,08,13,16.90
2016,08,17,08,14,16.90
2016,08,17,08,15,16.90
2016,08,17,08,16,17.00
2016,08,17,08,17,17.00
2016,08,17,08,18,17.10
2016,08,17,08,19,17.10
2016,08,17,08,20,17.20
2016,08,17,08,21,17.30
2016,08,17,08,22,17.30
2016,08,17,08,23,17.30
2016,08,17,08,24,17.40
2016,08,17,08,25,17.50
2016,08,17,08,26,17.50
2016,08,17,08,27,17.60
2016,08,17,08,28,17.60
2016,08,17,08,29,17.70
2016,08,17,08,30,17.80
2016,08,17,08,31,17.80
2016,08,17,08,32,17.90
2016,08,17,08,33,17.90
2016,08,17,08,34,17.90
2016,08,17,08,35,17.90
2016,08,17,08,36,17.80
2016,08,17,08,37,17.80
2016,08,17,08,38,17.70
2016,08,17,08,39,17.70
2016,08,17,08,40,17.70
2016,08,17,08,41,17.70
2016,08,17,08,42,17.60
2016,08,17,08,43,17.60
2016,08,17,08,44,17.60
2016,08,17,08,45,17.50
2016,08,17,08,46,17.50
2016,08,17,08,47,17.40
2016,08,17,08,48,17.40
2016,08,17,08,49,17.40
2016,08,17,08,50,17.40
2016,08,17,08,51,17.40
2016,08,17,08,52,17.40
2016,08,17,08,53,17.40
2016,08,17,08,54,17.50
2016,08,17,08,55,17.50
2016,08,17,08,56,17.60
2016,08,17,08,57,17.60
2016,08,17,08,58,17.60
2016,08,17,08,59,17.60
2016,08,17,09,00,17.60
2016,08,17,09,01,17.70
2016,08,17,09,02,17.70
2016,08,17,09,03,17.70
2016,08,17,09,04,17.70
2016,08,17,09,05,17.70
2016,08,17,09,06,17.70
2016,08,17,09,07,17.60
2016,08,17,09,08,17.60
2016,08,17,09,09,17.60
2016,08,17,09,10,17.70
2016,08,17,09,11,17.70
2016,08,17,09,12,17.80
2016,08,17,09,13,17.80
2016,08,17,09,14,17.90
2016,08,17,09,15,17.90
2016,08,17,09,16,17.80
2016,08,17,09,17,17.80
2016,08,17,09,18,17.80
2016,08,17,09,19,17.80
2016,08,17,09,20,17.80
2016,08,17,09,21,17.80
2016,08,17,09,22,17.80
2016,08,17,09,23,17.80
2016,08,17,09,24,17.80
2016,08,17,09,25,17.90
2016,08,17,09,26,17.90
2016,08,17,09,27,17.90
2016,08,17,09,28,17.90
2016,08,17,09,29,17.90
2016,08,17,09,30,17.90
2016,08,17,09,31,17.90
2016,08,17,09,32,17.90
2016,08,17,09,33,17.80
2016,08,17,09,34,17.80
2016,08,17,09,35,17.80
2016,08,17,09,36,17.90
2016,08,17,09,37,17.90
2016,08,17,09,38,18.00
2016,08,17,09,39,18.00
2016,08,17,09,40,18.10
2016,08,17,09,41,18.20
2016,08,17,09,42,18.20
2016,08,17,09,43,18.20
2016,08,17,09,44,18.20
2016,08,17,09,45,18.20
2016,08,17,09,46,18.20
2016,08,17,09,47,18.20
2016,08,17,09,48,18.10
2016,08,17,09,49,18.10
2016,08,17,09,50,18.10
2016,08,17,09,51,18.20
2016,08,17,09,52,18.20
2016,08,17,09,53,18.20
2016,08,17,09,54,18.20
2016,08,17,09,55,18.20
2016,08,17,09,56,18.20
2016,08,17,09,57,18.20
2016,08,17,09,58,18.30
2016,08,17,09,59,18.30
2016,08,17,10,00,18.30
2016,08,17,10,01,18.30
2016,08,17,10,02,18.40
2016,08,17,10,03,18.50
2016,08,17,10,04,18.50
2016,08,17,10,05,18.50
2016,08,17,10,06,18.50
2016,08,17,10,07,18.50
2016,08,17,10,08,18.50
2016,08,17,10,09,18.60
2016,08,17,10,10,18.60
2016,08,17,10,11,18.70
2016,08,17,10,12,18.70
2016,08,17,10,13,18.70
2016,08,17,10,14,18.70
2016,08,17,10,15,18.50
2016,08,17,10,16,18.40
2016,08,17,10,17,18.30
2016,08,17,10,18,18.30
2016,08,17,10,19,18.30
2016,08,17,10,20,18.20
2016,08,17,10,21,18.20
2016,08,17,10,22,18.20
2016,08,17,10,23,18.10
2016,08,17,10,24,18.10
2016,08,17,10,25,18.00
2016,08,17,10,26,18.00
2016,08,17,10,27,18.10
2016,08,17,10,28,18.00
2016,08,17,10,29,18.00
2016,08,17,10,30,18.00
2016,08,17,10,31,18.10
2016,08,17,10,32,18.20
2016,08,17,10,33,18.30
2016,08,17,10,34,18.30
2016,08,17,10,35,18.40
2016,08,17,10,36,18.50
2016,08,17,10,37,18.50
2016,08,17,10,38,18.60
2016,08,17,10,39,18.60
2016,08,17,10,40,18.70
2016,08,17,10,41,18.70
2016,08,17,10,42,18.70
2016,08,17,10,43,18.60
2016,08,17,10,44,18.60
2016,08,17,10,45,18.50
2016,08,17,10,46,18.40
2016,08,17,10,47,18.30
2016,08,17,10,48,18.30
2016,08,17,10,49,18.40
2016,08,17,10,50,18.50
2016,08,17,10,51,18.50
2016,08,17,10,52,18.60
2016,08,17,10,53,18.70
2016,08,17,10,54,18.70
2016,08,17,10,55,18.70
2016,08,17,10,56,18.80
2016,08,17,10,57,18.80
2016,08,17,10,58,18.80
2016,08,17,10,59,18.90
2016,08,17,11,00,18.90
2016,08,17,11,01,19.00
2016,08,17,11,02,19.10
2016,08,17,11,03,19.10
2016,08,17,11,04,19.10
2016,08,17,11,05,19.20
2016,08,17,11,06,19.20
2016,08,17,11,07,19.20
2016,08,17,11,08,19.20
2016,08,17,11,09,19.20
2016,08,17,11,10,19.30
2016,08,17,11,11,19.30
2016,08,17,11,12,19.20
2016,08,17,11,13,19.20
2016,08,17,11,14,19.20
2016,08,17,11,15,19.20
2016,08,17,11,16,19.20
2016,08,17,11,17,19.10
2016,08,17,11,18,19.10
2016,08,17,11,19,19.00
2016,08,17,11,20,18.90
2016,08,17,11,21,18.90
2016,08,17,11,22,18.90
2016,08,17,11,23,18.90
2016,08,17,11,24,18.90
2016,08,17,11,25,18.90
2016,08,17,11,26,19.00
2016,08,17,11,27,19.00
2016,08,17,11,28,18.90
2016,08,17,11,29,18.90
2016,08,17,11,30,18.90
2016,08,17,11,31,18.90
2016,08,17,11,32,18.90
2016,08,17,11,33,18.90
2016,08,17,11,34,18.90
2016,08,17,11,35,18.90
2016,08,17,11,36,19.00
2016,08,17,11,37,19.00
2016,08,17,11,38,19.10
2016,08,17,11,39,19.10
2016,08,17,11,40,19.10
2016,08,17,11,41,19.10
2016,08,17,11,42,19.10
2016,08,17,11,43,19.10
2016,08,17,11,44,19.20
2016,08,17,11,45,19.20
2016,08,17,11,46,19.20
2016,08,17,11,47,19.20
2016,08,17,11,48,19.20
2016,08,17,11,49,19.20
2016,08,17,11,50,19.30
2016,08,17,11,51,19.30
2016,08,17,11,52,19.40
2016,08,17,11,53,19.40
2016,08,17,11,54,19.40
2016,08,17,11,55,19.30
2016,08,17,11,56,19.30
2016,08,17,11,57,19.30
2016,08,17,11,58,19.30
2016,08,17,11,59,19.40
2016,08,17,12,00,19.50
2016,08,17,12,01,19.50
2016,08,17,12,02,19.60
2016,08,17,12,03,19.60
2016,08,17,12,04,19.70
2016,08,17,12,05,19.80
2016,08,17,12,06,19.80
2016,08,17,12,07,19.80
2016,08,17,12,08,19.80
2016,08,17,12,09,19.90
2016,08,17,12,10,19.90
2016,08,17,12,11,20.00
2016,08,17,12,12,20.10
2016,08,17,12,13,20.20
2016,08,17,12,14,20.20
2016,08,17,12,15,20.30
2016,08,17,12,16,20.30
2016,08,17,12,17,20.30
2016,08,17,12,18,20.40
2016,08,17,12,19,20.40
2016,08,17,12,20,20.40
2016,08,17,12,21,20.40
2016,08,17,12,22,20.40
2016,08,17,12,23,20.40
2016,08,17,12,24,20.50
2016,08,17,12,25,20.50
2016,08,17,12,26,20.50
2016,08,17,12,27,20.60
2016,08,17,12,28,20.60
2016,08,17,12,29,20.60
2016,08,17,12,30,20.60
2016,08,17,12,31,20.60
2016,08,17,12,32,20.50
2016,08,17,12,33,20.50
2016,08,17,12,34,20.40
2016,08,17,12,35,20.40
2016,08,17,12,36,20.40
2016,08,17,12,37,20.50
2016,08,17,12,38,20.50
2016,08,17,12,39,20.60
2016,08,17,12,40,20.60
2016,08,17,12,41,20.60
2016,08,17,12,42,20.60
2016,08,17,12,43,20.60
2016,08,17,12,44,20.60
2016,08,17,12,45,20.60
2016,08,17,12,46,20.60
2016,08,17,12,47,20.70
2016,08,17,12,48,20.70
2016,08,17,12,49,20.70
2016,08,17,12,50,20.70
2016,08,17,12,51,20.70
2016,08,17,12,52,20.70
2016,08,17,12,53,20.70
2016,08,17,12,54,20.70
2016,08,17,12,55,20.80
2016,08,17,12,56,20.80
2016,08,17,12,57,20.80
2016,08,17,12,58,20.90
2016,08,17,12,59,21.00
2016,08,17,13,00,21.00
2016,08,17,13,01,21.10
2016,08,17,13,02,21.10
2016,08,17,13,03,21.10
2016,08,17,13,04,21.10
2016,08,17,13,05,21.20
2016,08,17,13,06,21.20
2016,08,17,13,07,21.20
2016,08,17,13,08,21.20
2016,08,17,13,09,21.20
2016,08,17,13,10,21.30
2016,08,17,13,11,21.30
2016,08,17,13,12,21.40
2016,08,17,13,13,21.50
2016,08,17,13,14,21.50
2016,08,17,13,15,21.50
2016,08,17,13,16,21.40
2016,08,17,13,17,21.40
2016,08,17,13,18,21.40
2016,08,17,13,19,21.20
2016,08,17,13,20,21.20
2016,08,17,13,21,21.10
2016,08,17,13,22,21.10
2016,08,17,13,23,21.10
2016,08,17,13,24,21.00
2016,08,17,13,25,20.90
2016,08,17,13,26,20.90
2016,08,17,13,27,20.80
2016,08,17,13,28,20.80
2016,08,17,13,29,20.80
2016,08,17,13,30,20.80
2016,08,17,13,31,20.80
2016,08,17,13,32,20.90
2016,08,17,13,33,20.90
2016,08,17,13,34,21.00
2016,08,17,13,35,21.10
2016,08,17,13,36,21.10
2016,08,17,13,37,21.10
2016,08,17,13,38,21.10
2016,08,17,13,39,21.10
2016,08,17,13,40,21.10
2016,08,17,13,41,21.20
2016,08,17,13,42,21.20
2016,08,17,13,43,21.30
2016,08,17,13,44,21.30
2016,08,17,13,45,21.30
2016,08,17,13,46,21.30
2016,08,17,13,47,21.30
2016,08,17,13,48,21.30
2016,08,17,13,49,21.30
2016,08,17,13,50,21.40
2016,08,17,13,51,21.40
2016,08,17,13,52,21.50
2016,08,17,13,53,21.50
2016,08,17,13,54,21.50
2016,08,17,13,55,21.50
2016,08,17,13,56,21.60
2016,08,17,13,57,21.50
2016,08,17,13,58,21.60
2016,08,17,13,59,21.60
2016,08,17,14,00,21.60
2016,08,17,14,01,21.60
2016,08,17,14,02,21.60
2016,08,17,14,03,21.70
2016,08,17,14,04,21.80
2016,08,17,14,05,21.80
2016,08,17,14,06,21.90
2016,08,17,14,07,22.00
2016,08,17,14,08,22.10
2016,08,17,14,09,22.10
2016,08,17,14,10,22.20
2016,08,17,14,11,22.20
2016,08,17,14,12,22.20
2016,08,17,14,13,22.20
2016,08,17,14,14,22.10
2016,08,17,14,15,22.10
2016,08,17,14,16,22.00
2016,08,17,14,17,22.00
2016,08,17,14,18,22.00
2016,08,17,14,19,22.00
2016,08,17,14,20,22.00
2016,08,17,14,21,22.10
2016,08,17,14,22,22.20
2016,08,17,14,23,22.20
2016,08,17,14,24,22.20
2016,08,17,14,25,22.20
2016,08,17,14,26,22.30
2016,08,17,14,27,22.40
2016,08,17,14,28,22.50
2016,08,17,14,29,22.50
2016,08,17,14,30,22.50
2016,08,17,14,31,22.50
2016,08,17,14,32,22.60
2016,08,17,14,33,22.60
2016,08,17,14,34,22.70
2016,08,17,14,35,22.80
2016,08,17,14,36,22.80
2016,08,17,14,37,22.80
2016,08,17,14,38,22.80
2016,08,17,14,39,22.80
2016,08,17,14,40,22.80
2016,08,17,14,41,22.80
2016,08,17,14,42,22.80
2016,08,17,14,43,22.80
2016,08,17,14,44,22.80
2016,08,17,14,45,22.80
2016,08,17,14,46,22.90
2016,08,17,14,47,22.90
2016,08,17,14,48,23.00
2016,08,17,14,49,23.00
2016,08,17,14,50,23.00
2016,08,17,14,51,23.00
2016,08,17,14,52,23.00
2016,08,17,14,53,23.10
2016,08,17,14,54,23.10
2016,08,17,14,55,23.10
2016,08,17,14,56,23.10
2016,08,17,14,57,23.10
2016,08,17,14,58,23.00
2016,08,17,14,59,23.00
2016,08,17,15,00,22.90
2016,08,17,15,01,22.90
2016,08,17,15,02,22.90
2016,08,17,15,03,22.90
2016,08,17,15,04,22.90
2016,08,17,15,05,22.90
2016,08,17,15,06,22.90
2016,08,17,15,07,22.90
2016,08,17,15,08,23.00
2016,08,17,15,09,23.00
2016,08,17,15,10,23.10
2016,08,17,15,11,23.10
2016,08,17,15,12,23.10
2016,08,17,15,13,23.00
2016,08,17,15,14,23.00
2016,08,17,15,15,22.90
2016,08,17,15,16,23.00
2016,08,17,15,17,23.00
2016,08,17,15,18,23.10
2016,08,17,15,19,23.10
2016,08,17,15,20,23.10
2016,08,17,15,21,23.10
2016,08,17,15,22,23.10
2016,08,17,15,23,23.10
2016,08,17,15,24,23.00
2016,08,17,15,25,23.10
2016,08,17,15,26,23.10
2016,08,17,15,27,23.10
2016,08,17,15,28,23.10
2016,08,17,15,29,23.10
2016,08,17,15,30,23.10
2016,08,17,15,31,23.10
2016,08,17,15,32,23.10
2016,08,17,15,33,23.10
2016,08,17,15,34,23.10
2016,08,17,15,35,23.10
2016,08,17,15,36,23.10
2016,08,17,15,37,23.10
2016,08,17,15,38,23.20
2016,08,17,15,39,23.20
2016,08,17,15,40,23.30
2016,08,17,15,41,23.40
2016,08,17,15,42,23.40
2016,08,17,15,43,23.50
2016,08,17,15,44,23.50
2016,08,17,15,45,23.50
2016,08,17,15,46,23.50
2016,08,17,15,47,23.60
2016,08,17,15,48,23.60
2016,08,17,15,49,23.60
2016,08,17,15,50,23.60
2016,08,17,15,51,23.60
2016,08,17,15,52,23.60
2016,08,17,15,53,23.60
2016,08,17,15,54,23.70
2016,08,17,15,55,23.70
2016,08,17,15,56,23.70
2016,08,17,15,57,23.60
2016,08,17,15,58,23.60
2016,08,17,15,59,23.60
2016,08,17,16,00,23.60
2016,08,17,16,01,23.60
2016,08,17,16,02,23.60
2016,08,17,16,03,23.60
2016,08,17,16,04,23.50
2016,08,17,16,05,23.50
2016,08,17,16,06,23.50
2016,08,17,16,07,23.50
2016,08,17,16,08,23.50
2016,08,17,16,09,23.50
2016,08,17,16,10,23.60
2016,08,17,16,11,23.60
2016,08,17,16,12,23.60
2016,08,17,16,13,23.60
2016,08,17,16,14,23.60
2016,08,17,16,15,23.70
2016,08,17,16,16,23.70
2016,08,17,16,17,23.70
2016,08,17,16,18,23.60
2016,08,17,16,19,23.40
2016,08,17,16,20,23.30
2016,08,17,16,21,23.20
2016,08,17,16,22,23.10
2016,08,17,16,23,22.90
2016,08,17,16,24,22.70
2016,08,17,16,25,22.50
2016,08,17,16,26,22.40
2016,08,17,16,27,22.20
2016,08,17,16,28,22.10
2016,08,17,16,29,21.90
2016,08,17,16,30,21.80
2016,08,17,16,31,21.70
2016,08,17,16,32,21.60
2016,08,17,16,33,21.50
2016,08,17,16,34,21.30
2016,08,17,16,35,21.30
2016,08,17,16,36,21.20
2016,08,17,16,37,21.00
2016,08,17,16,38,20.90
2016,08,17,16,39,20.80
2016,08,17,16,40,20.80
2016,08,17,16,41,20.80
2016,08,17,16,42,20.80
2016,08,17,16,43,20.80
2016,08,17,16,44,20.80
2016,08,17,16,45,20.80
2016,08,17,16,46,20.80
2016,08,17,16,47,20.80
2016,08,17,16,48,20.80
2016,08,17,16,49,20.80
2016,08,17,16,50,20.70
2016,08,17,16,51,20.70
2016,08,17,16,52,20.60
2016,08,17,16,53,20.60
2016,08,17,16,54,20.60
2016,08,17,16,55,20.60
2016,08,17,16,56,20.50
2016,08,17,16,57,20.50
2016,08,17,16,58,20.60
2016,08,17,16,59,20.60
2016,08,17,17,00,20.70
2016,08,17,17,01,20.70
2016,08,17,17,02,20.80
2016,08,17,17,03,20.80
2016,08,17,17,04,20.90
2016,08,17,17,05,21.00
2016,08,17,17,06,21.00
2016,08,17,17,07,21.00
2016,08,17,17,08,21.00
2016,08,17,17,09,21.10
2016,08,17,17,10,21.10
2016,08,17,17,11,21.10
2016,08,17,17,12,21.00
2016,08,17,17,13,21.00
2016,08,17,17,14,21.00
2016,08,17,17,15,21.00
2016,08,17,17,16,21.00
2016,08,17,17,17,21.00
2016,08,17,17,18,20.90
2016,08,17,17,19,20.90